Location: ?????????
(44.2517°N, 135.2292°E)
Time: 15:27:35
(UTC+00:00)

ARIANE 6 FM1 Upper Stage - Pass Details

Date: 25 January 2026
Orbit: 522 x 609 km, 62.0° (Epoch: 11 February)

Event Time Altitude Azimuth Distance (km) Brightness Sun altitude
Rises 09:32:06 0° 229° (SW) 2,710 7.2 -16.7°
Reaches altitude 10° 09:34:22 10° 234° (SW) 1,806 6.2 -17.1°
Maximum altitude 09:38:21 55° 313° (NW) 650 3.1 -17.8°
Enters shadow 09:40:33 24° 22° (NNE) 1,132 3.9 -18.2°
